EW5825 Weather Reports


time (UTC)temp
F
wind
direction
speed
knots
gust
knots
rain 1hr
in
rain 24hr
in
rain mn
in
humidity
%
barometer
mb
20260906230512 82 227 1.7 1.7 0.00 0.00 0.00 36 1018.1
20260906225011 82 25 0.0 1.7 0.00 0.00 0.00 35 1018.1
20260906222012 83 1 1.7 3.5 0.00 0.00 0.00 34 1018.0
20260906220511 84 0 2.6 4.3 0.00 0.00 0.00 26 1018.1
20260906215012 83 25 3.5 4.3 0.00 0.00 0.00 35 1018.3
20260906213513 84 6 3.5 5.2 0.00 0.00 0.00 25 1018.4
20260906212012 85 343 1.7 7.8 0.00 0.00 0.00 24 1018.7
20260906210511 85 357 3.5 8.7 0.00 0.00 0.00 26 1018.8
20260906205011 86 353 1.7 6.1 0.00 0.00 0.00 26 1018.9
20260906203513 87 337 4.3 8.7 0.00 0.00 0.00 29 1019.0
20260906202011 87 343 1.7 4.3 0.00 0.00 0.00 26 1019.3
20260906200513 84 327 1.7 4.3 0.00 0.00 0.00 26 1019.6
20260906195012 86 337 3.5 8.7 0.00 0.00 0.00 24 1019.9
20260906193512 85 354 2.6 4.3 0.00 0.00 0.00 29 1020.0
20260906192011 84 286 1.7 3.5 0.00 0.00 0.00 28 1020.1
20260906190513 82 310 1.7 2.6 0.00 0.00 0.00 29 1020.5
20260906185012 80 3 0.9 2.6 0.00 0.00 0.00 36 1020.7
20260906183511 80 343 0.9 2.6 0.00 0.00 0.00 33 1021.1
20260906180512 79 37 1.7 4.3 0.00 0.00 0.00 34 1021.4
20260906173512 77 11 1.7 4.3 0.00 0.00 0.00 33 1021.9
20260906172011 74 68 1.7 5.2 0.00 0.00 0.00 35 1022.2
20260906170511 75 0 2.6 5.2 0.00 0.00 0.00 39 1022.2
20260906165012 74 348 1.7 3.5 0.00 0.00 0.00 44 1022.5
20260906163511 72 340 1.7 3.5 0.00 0.00 0.00 43 1022.6
20260906162011 72 0 2.6 4.3 0.00 0.00 0.00 42 1022.7
20260906160511 72 320 0.9 2.6 0.00 0.00 0.00 36 1022.5
20260906155012 70 327 0.0 3.5 0.00 0.00 0.00 38 1022.7
20260906153509 69 314 0.9 1.7 0.00 0.00 0.00 39 1022.5
20260906152010 66 162 0.0 1.7 0.00 0.00 0.00 51 1022.7
20260906150510 67 162 0.0 1.7 0.00 0.00 0.00 44 1023.0
20260906145010 65 162 0.9 2.6 0.00 0.00 0.00 46 1023.0
20260906143509 64 111 1.7 2.6 0.00 0.00 0.00 48 1022.8
20260906142011 62 116 1.7 2.6 0.00 0.00 0.00 49 1023.0
20260906140513 60 241 0.0 1.7 0.00 0.00 0.00 55 1022.8
20260906135012 56 127 0.9 1.7 0.00 0.00 0.00 65 1022.8
20260906133512 53 127 0.9 1.7 0.00 0.00 0.00 62 1022.7
20260906132125 54 195 0.9 2.6 0.00 0.00 0.00 57 1022.6
20260906130625 51 223 0.9 1.7 0.00 0.00 0.00 68 1022.5
20260906125124 51 244 0.0 1.7 0.00 0.00 0.00 65 1022.2
20260906123624 52 243 1.7 1.7 0.00 0.00 0.00 62 1022.2
20260906120623 52 203 0.0 1.7 0.00 0.00 0.00 66 1022.1
20260906115123 52 203 0.9 1.7 0.00 0.00 0.00 66 1022.0
20260906113625 52 113 0.0 2.6 0.00 0.00 0.00 63 1021.8
20260906112124 54 159 0.9 2.6 0.00 0.00 0.00 61 1021.9
20260906110624 54 230 1.7 1.7 0.00 0.00 0.00 61 1021.8
20260906103623 55 223 0.0 1.7 0.00 0.00 0.00 60 1021.8
20260906102124 55 197 0.9 1.7 0.00 0.00 0.00 64 1021.7
20260906095123 58 213 0.0 1.7 0.00 0.00 0.00 53 1021.5
20260906093626 55 182 1.7 2.6 0.00 0.00 0.00 62 1021.7
20260906090625 55 257 0.0 1.7 0.00 0.00 0.00 62 1021.7
20260906085125 55 257 0.0 1.7 0.00 0.00 0.00 62 1021.5
20260906083624 54 333 0.0 1.7 0.00 0.00 0.00 66 1021.5
20260906082123 57 231 0.0 1.7 0.00 0.00 0.00 55 1021.7
20260906080623 58 247 0.0 1.7 0.00 0.00 0.00 58 1021.7
20260906075124 57 180 1.7 2.6 0.00 0.00 0.00 55 1021.8
20260906073623 58 73 0.0 2.6 0.00 0.00 0.00 58 1021.7
20260906072123 57 190 1.7 1.7 0.00 0.00 0.00 55 1021.7
20260906070625 58 207 0.0 1.7 0.00 0.00 0.00 53 1021.8
20260906065124 58 213 0.0 0.9 0.00 0.00 0.00 55 1021.7
20260906062124 61 166 0.9 1.7 0.00 0.00 0.00 48 1021.7
20260906060621 60 207 0.0 1.7 0.00 0.00 0.00 51 1021.5
20260906055122 61 110 0.9 2.6 0.00 0.00 0.00 48 1021.5
20260906052124 61 138 0.0 1.7 0.00 0.00 0.00 47 1021.4
20260906045123 64 247 1.7 3.5 0.00 0.00 0.00 41 1021.3
20260906043624 66 111 1.7 7.8 0.00 0.00 0.00 37 1021.3
20260906042124 68 25 1.7 7.8 0.00 0.00 0.00 35 1021.4
20260906040623 73 254 2.6 7.8 0.00 0.00 0.00 28 1020.9
20260906035122 73 206 4.3 8.7 0.00 0.00 0.00 28 1020.8
20260906033623 71 189 4.3 5.2 0.00 0.00 0.00 30 1020.8
20260906032123 72 180 4.3 5.2 0.00 0.00 0.00 31 1020.8
20260906030622 72 192 4.3 5.2 0.00 0.00 0.00 30 1020.6
20260906025123 71 220 3.5 4.3 0.00 0.00 0.00 32 1020.3
20260906023622 69 183 0.9 1.7 0.00 0.00 0.00 37 1020.2
20260906022122 69 234 0.9 1.7 0.00 0.00 0.00 42 1020.0
20260906020622 72 220 0.0 1.7 0.00 0.00 0.00 33 1019.7
20260906013623 76 223 0.0 1.7 0.00 0.00 0.00 30 1019.5
20260906012123 78 227 0.0 1.7 0.00 0.00 0.00 27 1019.5
20260906010624 80 182 0.9 5.2 0.00 0.00 0.00 24 1019.5
20260906005123 82 230 2.6 4.3 0.00 0.00 0.00 24 1019.5
20260906003624 82 138 1.7 3.5 0.00 0.00 0.00 33 1019.4
20260906002122 82 344 0.9 2.6 0.00 0.00 0.00 31 1019.3
20260906000625 83 11 0.9 2.6 0.00 0.00 0.00 36 1019.3
20260905235124 83 243 0.0 3.5 0.00 0.00 0.00 34 1019.2
20260905233623 80 18 1.7 2.6 0.00 0.00 0.00 43 1019.2
20260905232123 79 13 0.9 4.3 0.00 0.00 0.00 43 1019.4